Middlesboro, KY

4:39 PM CDT on September 24, 2017 (GMT -0500)
Middlesboro

Weather History for K1A6 - April, 2013

Change the Weather History Date:

Thursday, April 11, 2013

  Actual Average (KLOZ) Record (KLOZ)
Temperature  
Mean Temperature 69 °F -  
Max Temperature 81 °F 67 °F 86 °F (1977)
Min Temperature 57 °F 40 °F 22 °F (1960)
Cooling Degree Days 4    
Growing Degree Days 19 (Base 50)    
Moisture  
Dew Point 54 °F    
Average Humidity 58    
Maximum Humidity 98    
Minimum Humidity 36    
Precipitation  
Precipitation 0.85 in - - ()
Sea Level Pressure  
Sea Level Pressure 29.79 in    
Wind  
Wind Speed 7 mph (South)    
Max Wind Speed 16 mph    
Max Gust Speed 24 mph    
Visibility 9 miles    
Events Rain , Thunderstorm    
Averages and records for this station are not official NWS values.
T = Trace of Precipitation, MM = Missing Value Source: NWS Daily Summary

Daily Weather History Graph

Daily Weather History Graph

Search for Another Location

Airport or City:

Trip Planner

Search our weather history database for the weather conditions in past years. The results will help you decide how hot, cold, wet, or windy it might be!

Date:

Astronomy

Apr. 11, 2013 Rise Set
Actual Time 6:06 AM CDT 7:06 PM CDT
Civil Twilight 5:39 AM CDT 7:32 PM CDT
Nautical Twilight 5:08 AM CDT 8:04 PM CDT
Astronomical Twilight 4:36 AM CDT 8:36 PM CDT
Moon 6:39 AM CDT (4/11) 8:36 PM CDT (4/11)
Length of Visible Light 13h 52m
Length of Day
12h 59m
New Moon, 2% of the Moon is Illuminated
Apr 11
New Moon
Apr 18
First Quarter
Apr 25
Full
May 2
Last Quarter
May 9
New

Hourly Weather History & Observations

Time (CDT) Temp. Heat Index Dew Point Humidity Pressure Visibility Wind Dir Wind Speed Gust Speed Precip Events Conditions
12:15 AM 65.7 °F - 53.8 °F 65% 29.90 in 10.0 mi SSW 9.2 mph - N/A   Clear
12:35 AM 71.8 °F - 54.0 °F 53% 29.90 in 10.0 mi South 6.9 mph - N/A   Clear
12:55 AM 71.1 °F - 53.8 °F 54% 29.90 in 10.0 mi SSW 6.9 mph - N/A   Clear
1:15 AM 70.9 °F - 54.0 °F 55% 29.89 in 10.0 mi South 5.8 mph - N/A   Clear
1:35 AM 71.8 °F - 53.8 °F 53% 29.89 in 10.0 mi South 4.6 mph - N/A   Clear
1:55 AM 71.8 °F - 53.6 °F 53% 29.89 in 10.0 mi Calm Calm - N/A   Scattered Clouds
2:15 AM 70.7 °F - 53.8 °F 55% 29.88 in 10.0 mi SSE 6.9 mph - N/A   Scattered Clouds
2:35 AM 69.1 °F - 53.8 °F 58% 29.87 in 10.0 mi Calm Calm - N/A   Clear
2:55 AM 69.8 °F - 53.8 °F 57% 29.88 in 10.0 mi Calm Calm - N/A   Scattered Clouds
3:15 AM 70.5 °F - 53.6 °F 55% 29.87 in 10.0 mi SSE 4.6 mph - N/A   Mostly Cloudy
3:35 AM 70.2 °F - 53.6 °F 56% 29.87 in 10.0 mi Calm Calm - N/A   Scattered Clouds
3:55 AM 70.5 °F - 53.4 °F 55% 29.87 in 10.0 mi South 6.9 mph 17.3 mph N/A   Scattered Clouds
4:15 AM 70.3 °F - 53.2 °F 55% 29.88 in 10.0 mi South 5.8 mph - N/A   Clear
4:35 AM 71.1 °F - 53.1 °F 53% 29.88 in 10.0 mi South 3.5 mph - N/A   Clear
4:55 AM 69.8 °F - 53.2 °F 56% 29.87 in 10.0 mi SSE 4.6 mph - N/A   Clear
5:15 AM 70.3 °F - 53.2 °F 55% 29.87 in 10.0 mi South 6.9 mph - N/A   Clear
5:35 AM 69.3 °F - 53.2 °F 57% 29.87 in 10.0 mi SSE 3.5 mph - N/A   Clear
5:55 AM 69.3 °F - 53.2 °F 57% 29.88 in 10.0 mi SSE 5.8 mph - N/A   Clear
6:15 AM 69.3 °F - 53.2 °F 57% 29.88 in 10.0 mi South 5.8 mph - N/A   Clear
6:35 AM 69.1 °F - 53.2 °F 57% 29.89 in 10.0 mi South 6.9 mph 18.4 mph N/A   Clear
6:55 AM 69.1 °F - 53.4 °F 57% 29.89 in 10.0 mi South 9.2 mph 17.3 mph N/A   Clear
7:15 AM 69.1 °F - 53.6 °F 58% 29.90 in 10.0 mi South 6.9 mph - N/A   Clear
7:35 AM 69.3 °F - 53.6 °F 57% 29.90 in 10.0 mi SSW 8.1 mph 16.1 mph N/A   Clear
7:55 AM 69.4 °F - 54.3 °F 59% 29.90 in 10.0 mi South 5.8 mph - N/A   Clear
8:15 AM 69.4 °F - 54.5 °F 59% 29.89 in 10.0 mi SSW 10.4 mph 17.3 mph N/A   Clear
8:35 AM 70.5 °F - 54.9 °F 58% 29.88 in 10.0 mi South 10.4 mph - N/A   Clear
8:55 AM 71.1 °F - 55.0 °F 57% 29.88 in 10.0 mi South 13.8 mph 19.6 mph N/A   Clear
9:15 AM 71.2 °F - 55.4 °F 57% 29.87 in 10.0 mi South 6.9 mph - N/A   Clear
9:35 AM 72.5 °F - 55.8 °F 56% 29.87 in 10.0 mi South 6.9 mph - N/A   Clear
9:55 AM 72.7 °F - 55.4 °F 55% 29.87 in 10.0 mi South 11.5 mph 21.9 mph N/A   Clear
10:15 AM 72.7 °F - 55.4 °F 55% 29.87 in 10.0 mi SSW 8.1 mph 19.6 mph N/A   Clear
10:35 AM 74.5 °F - 55.4 °F 51% 29.87 in 10.0 mi South 10.4 mph 19.6 mph N/A   Clear
10:55 AM 75.2 °F - 55.0 °F 49% 29.86 in 10.0 mi South 9.2 mph 23.0 mph N/A   Clear
11:15 AM 76.5 °F - 53.6 °F 45% 29.86 in 10.0 mi SSW 11.5 mph 21.9 mph N/A   Clear
11:35 AM 76.3 °F - 52.3 °F 43% 29.85 in 10.0 mi South 12.7 mph 24.2 mph N/A   Mostly Cloudy
12:15 PM 77.0 °F - 53.1 °F 43% 29.83 in 10.0 mi South 12.7 mph 23.0 mph N/A   Clear
12:35 PM 78.3 °F - 53.2 °F 42% 29.81 in 10.0 mi SSW 4.6 mph 18.4 mph N/A   Clear
12:55 PM 78.1 °F - 53.2 °F 42% 29.79 in 10.0 mi SSE 9.2 mph 17.3 mph N/A   Clear
1:15 PM 79.9 °F - 53.2 °F 40% 29.77 in 10.0 mi SW 5.8 mph - N/A   Clear
1:35 PM 80.2 °F 80.0 °F 53.2 °F 39% 29.76 in 10.0 mi South 10.4 mph 16.1 mph N/A   Clear
1:55 PM 80.6 °F - 52.3 °F 37% 29.75 in 10.0 mi South 8.1 mph 18.4 mph N/A   Clear
2:15 PM 81.0 °F - 52.0 °F 36% 29.73 in 10.0 mi South 12.7 mph 21.9 mph N/A   Scattered Clouds
2:35 PM 79.7 °F - 52.2 °F 38% 29.73 in 10.0 mi South 10.4 mph - N/A   Mostly Cloudy
2:55 PM 79.9 °F - 52.5 °F 39% 29.72 in 10.0 mi South 10.4 mph 21.9 mph N/A   Mostly Cloudy
3:15 PM 79.7 °F - 52.7 °F 39% 29.72 in 10.0 mi SSW 12.7 mph 16.1 mph N/A   Mostly Cloudy
3:35 PM 79.2 °F - 53.1 °F 40% 29.70 in 10.0 mi South 11.5 mph 18.4 mph N/A   Overcast
4:15 PM 79.0 °F - 53.1 °F 40% 29.69 in 10.0 mi South 6.9 mph - N/A   Overcast
4:35 PM 79.7 °F - 53.1 °F 40% 29.67 in 10.0 mi South 5.8 mph - N/A   Scattered Clouds
4:55 PM 79.7 °F - 52.2 °F 38% 29.66 in 10.0 mi South 8.1 mph 18.4 mph N/A   Clear
5:15 PM 79.0 °F - 52.5 °F 40% 29.66 in 10.0 mi South 10.4 mph - N/A   Scattered Clouds
5:35 PM 78.8 °F - 52.2 °F 39% 29.65 in 10.0 mi South 6.9 mph 23.0 mph N/A   Scattered Clouds
5:55 PM 78.1 °F - 52.5 °F 41% 29.65 in 10.0 mi South 10.4 mph 20.7 mph N/A   Mostly Cloudy
6:15 PM 77.2 °F - 52.9 °F 43% 29.66 in 10.0 mi SSE 13.8 mph 20.7 mph N/A   Overcast
6:35 PM 76.5 °F - 53.6 °F 45% 29.66 in 10.0 mi SSE 5.8 mph 17.3 mph N/A Thunderstorm Overcast
6:55 PM 75.4 °F - 54.7 °F 48% 29.66 in 10.0 mi South 8.1 mph - N/A Rain Light Rain
7:15 PM 73.4 °F - 57.2 °F 57% 29.67 in 10.0 mi South 5.8 mph - N/A Rain Light Rain
7:35 PM 71.6 °F - 57.4 °F 61% 29.67 in 7.0 mi SSW 9.2 mph 17.3 mph 0.01 in Rain Rain
7:55 PM 68.2 °F - 60.1 °F 75% 29.69 in 7.0 mi West 4.6 mph - 0.04 in Rain , Thunderstorm Rain
8:15 PM 62.8 °F - 58.1 °F 85% 29.72 in 7.0 mi WNW 16.1 mph 23.0 mph 0.03 in Rain Light Rain
8:35 PM 59.9 °F - 55.8 °F 86% 29.74 in 4.0 mi WNW 5.8 mph - 0.18 in Rain Heavy Rain
8:55 PM 58.6 °F - 56.5 °F 93% 29.75 in 4.0 mi Calm Calm - 0.38 in Rain Heavy Rain
9:15 PM 58.5 °F - 57.4 °F 96% 29.75 in 3.0 mi Calm Calm - 0.07 in Rain Heavy Rain
9:35 PM 58.1 °F - 57.0 °F 96% 29.74 in 3.0 mi East 4.6 mph - 0.15 in Rain Rain
9:55 PM 57.7 °F - 56.5 °F 96% 29.72 in 5.0 mi Calm Calm - 0.20 in Rain Rain
10:15 PM 58.1 °F - 57.2 °F 97% 29.72 in 5.0 mi South 3.5 mph - 0.04 in Rain Rain
10:35 PM 58.1 °F - 57.2 °F 97% 29.71 in 4.0 mi Calm Calm - 0.11 in Rain Rain
10:55 PM 57.7 °F - 57.2 °F 98% 29.69 in 4.0 mi Calm Calm - 0.17 in Rain Rain
11:15 PM 58.8 °F - 57.2 °F 94% 29.68 in 7.0 mi SSW 8.1 mph - 0.03 in Rain Light Rain
11:35 PM 60.8 °F - 57.4 °F 88% 29.68 in 10.0 mi South 8.1 mph 17.3 mph 0.04 in Rain Light Rain
11:55 PM 60.8 °F - 57.6 °F 89% 29.64 in 10.0 mi South 12.7 mph 20.7 mph 0.06 in Rain Light Rain